Weather History for Smyrna, TN

Change the Weather History Date:

Monday, February 25, 2013

  Actual Average Record
Temperature  
Mean Temperature 47 °F -  
Max Temperature 64 °F 51 °F 71 °F (2001)
Min Temperature 30 °F 37 °F 23 °F (2003)
Degree Days  
Heating Degree Days 18    
Moisture  
Dew Point 33 °F    
Average Humidity 57    
Maximum Humidity 82    
Minimum Humidity 28    
Precipitation  
Precipitation 0.00 in - - ()
Sea Level Pressure  
Sea Level Pressure 29.89 in    
Wind  
Wind Speed 5 mph (ESE)    
Max Wind Speed 17 mph    
Max Gust Speed 26 mph    
Visibility 10 miles    
Events Rain    
Averages and records for this station are not official NWS values.
T = Trace of Precipitation, MM = Missing Value Source: NWS Daily Summary

Daily Weather History Graph

Daily Weather History Graph

Search for Another Location

Airport:

Trip Planner

Search our weather history database for the weather conditions in past years. The results will help you decide how hot, cold, wet, or windy it might be!

Date:

Astronomy

Feb. 25, 2013 Rise Set
Actual Time 6:21 AM CST 5:37 PM CST
Civil Twilight 5:55 AM CST 6:03 PM CST
Nautical Twilight 5:25 AM CST 6:33 PM CST
Astronomical Twilight 4:55 AM CST 7:02 PM CST
Moon 5:48 PM CST (2/25) 5:52 AM CST (2/25)
Length of Visible Light 12h 08m
Length of Day
11h 16m
Full, 100% of the Moon is Illuminated
Feb 25
Full
Feb 25
Full
Mar 4
Last Quarter
Mar 11
New
Mar 19
First Quarter

Hourly Weather History & Observations

Time (CST) Temp. Windchill Dew Point Humidity Pressure Visibility Wind Dir Wind Speed Gust Speed Precip Events Conditions
12:56 AM 30.0 °F - 25.2 °F 82% 30.06 in 10.0 mi Calm Calm - N/A   Clear
1:56 AM 32.0 °F - 26.1 °F 79% 30.07 in 10.0 mi Calm Calm - N/A   Clear
2:56 AM 31.1 °F - 26.1 °F 82% 30.07 in 10.0 mi Calm Calm - N/A   Clear
3:56 AM 34.9 °F 30.8 °F 27.1 °F 73% 30.04 in 10.0 mi NNE 4.6 mph - N/A   Clear
4:56 AM 34.9 °F - 27.1 °F 73% 30.06 in 10.0 mi Calm Calm - N/A   Clear
5:56 AM 35.6 °F - 26.6 °F 70% 30.02 in 10.0 mi Calm Calm - N/A   Clear
6:56 AM 32.0 °F - 26.1 °F 79% 30.06 in 10.0 mi Calm Calm - N/A   Clear
7:56 AM 36.9 °F 32.2 °F 27.1 °F 68% 30.08 in 10.0 mi NE 5.8 mph - N/A   Clear
8:56 AM 43.0 °F 38.2 °F 28.0 °F 56% 30.04 in 10.0 mi ENE 8.1 mph - N/A   Clear
9:56 AM 50.0 °F - 28.0 °F 43% 30.01 in 10.0 mi ESE 8.1 mph - N/A   Clear
10:56 AM 54.9 °F - 28.0 °F 36% 29.99 in 10.0 mi ESE 8.1 mph - N/A   Clear
11:56 AM 61.0 °F - 29.1 °F 30% 29.95 in 10.0 mi East 9.2 mph - N/A   Clear
12:56 PM 64.9 °F - 31.1 °F 28% 29.91 in 10.0 mi ESE 12.7 mph - N/A   Clear
1:56 PM 64.9 °F - 32.0 °F 29% 29.86 in 10.0 mi ESE 9.2 mph - N/A   Mostly Cloudy
2:56 PM 64.9 °F - 34.0 °F 32% 29.84 in 10.0 mi South 11.5 mph - N/A   Mostly Cloudy
3:56 PM 61.9 °F - 37.9 °F 41% 29.82 in 10.0 mi SE 12.7 mph 21.9 mph N/A   Overcast
4:56 PM 59.9 °F - 39.9 °F 48% 29.79 in 10.0 mi SE 15.0 mph 19.6 mph N/A   Overcast
5:56 PM 57.9 °F - 38.8 °F 49% 29.80 in 10.0 mi SE 8.1 mph - N/A   Overcast
6:56 PM 55.9 °F - 38.8 °F 53% 29.80 in 10.0 mi SE 8.1 mph - N/A   Mostly Cloudy
7:56 PM 56.8 °F - 39.9 °F 53% 29.78 in 10.0 mi SE 10.4 mph - N/A   Overcast
8:56 PM 55.9 °F - 38.8 °F 53% 29.73 in 10.0 mi ESE 8.1 mph - N/A   Overcast
9:56 PM 55.9 °F - 43.0 °F 62% 29.70 in 10.0 mi SE 12.7 mph 19.6 mph N/A   Overcast
10:56 PM 55.9 °F - 45.0 °F 67% 29.63 in 10.0 mi SE 13.8 mph - N/A   Overcast
11:05 PM 55.4 °F - 44.6 °F 67% 29.60 in 10.0 mi SE 17.3 mph 21.9 mph N/A   Overcast
11:56 PM 54.0 °F - 47.8 °F 80% 29.60 in 8.0 mi SE 16.1 mph 26.5 mph 0.00 in Rain Light Rain